sat.trackr.live / text

‹ back to catalog

STARLINK-37257

NORAD 68970 · 2026-099V

PAYLOAD ACTIVE UNKNOWN

§ Identity

Operator
Country
US
Launch date
2026-05-01
Launch site
AFETR
Launch vehicle
Mass (kg)
RCS (m²)

Purposes: comms

External: N2YO · Heavens-Above · Gunter

§ Orbital elements

Epoch: 2026-05-25T04:00:03.998880Z

Period
92.16 min
Inclination
53.1590°
Eccentricity
0.0000972
Mean motion
15.62470642 rev/d
Perigee alt
379.9 km
Apogee alt
381.2 km
Semi-major
6,758.7 km
B*
-2.3369e-2
RAAN
270.0674°
Arg perigee
82.5197°
Mean anomaly
212.0809°
Rev number
485

§ Raw data

STARLINK-372571 68970U 26099V   26145.16671295 -.01875996  00000+0 -23369-1 0  99912 68970  53.1590 270.0674 0000972  82.5197 212.0809 15.62470642  4857

JSON: /api/v1/satellites/68970 · /tle

For live sub-satellite position, see the globe view (requires WebGL).

§ Visibility from observer

Set your observer location to see the next 7 days of passes ≥ 10°. The values pass through the URL so the page stays shareable.

No JS? Fill the form by hand. The geolocation button needs JavaScript.